Volver al catálogo

STARLINK-31243

ActivoComunicacionesVLEO
NORAD 58894·PAYLOAD·🇺🇸 United States

Lanzado Jan 29, 2024 desde Vandenberg Space Force Base

Loading…

Próximos Pases (próximas 24 horas)

TLE

ActualizadoSource: CelesTrak SupGP

Época: Sep 15, 2026, 01:45 UTC

1 58894C 24020U   26258.07340278 -.00035033  00000+0 -11266-2 0  2587
2 58894  53.1581 161.4975 0001381  73.9339 310.6583 15.31718055    12

Sigue STARLINK-31243 en tiempo real con AllMySat

Download on the App Store